Home   Weather   Panama City   Past weeks

Flag for USA Past Weather in Panama City, Florida, USA — Yesterday and Last 2 Weeks

Now
74 °F

Low clouds.


Feels Like: 73 °F
Forecast: 73 / 80 °F
Wind: 17 mph from South

Location: Tyndall Air Force Base

Current Time: Apr 27, 2017 at 4:38:11 am

Latest Report: Apr 27, 2017 at 3:56 am


Visibility: 10 mi

Pressure: 29.78 "Hg

Humidity: 92%

Dew Point: 72 °F

Location of Panama CityLocation

Past Weather in Panama City — Graph

°F

Panama City Temperature Yesterday

Maximum temperature yesterday: 78 °F (at 3:56 pm)
Minimum temperature yesterday: 64 °F (at 5:56 am)
Average temperature yesterday: 73 °F

High & Low Weather Summary for the Past Weeks

 TemperatureHumidityPressure
High85 °F (Apr 18, 1:56 pm)100% (Apr 16, 1:31 am)30.29 "Hg (Apr 16, 1:31 am)
Low55 °F (Apr 24, 10:56 pm)28% (Apr 14, 3:56 pm)29.77 "Hg (Apr 23, 4:03 pm)
Average69 °F79%30.05 "Hg
* Reported Apr 12 2:56 am — Apr 27 2:56 am, Panama City, Weather by CustomWeather, © 2017

Note: Actual official high and low records may vary slightly from our data, if they occured in-between our weather recording intervals... More about our weather records

Advertising

Panama City Weather History for the Previous 24 Hours

Scroll right to see more
 ConditionsComfort  
Time TempWeatherWind HumidityBarometerVisibility
2:56 am
Thu, Apr 27
74 °FLow clouds.18 mph93%29.79 "Hg10 mi
1:56 am74 °FLow clouds.15 mph92%29.80 "Hg10 mi
1:36 am73 °FLow clouds.18 mph94%29.80 "Hg10 mi
12:56 am74 °FLow clouds.18 mph91%29.82 "Hg10 mi
12:01 am75 °FLow clouds.20 mph89%29.83 "Hg10 mi
10:56 pm
Wed, Apr 26
74 °FOvercast.16 mph86%29.84 "Hg10 mi
9:56 pm73 °FOvercast.13 mph83%29.84 "Hg10 mi
9:21 pm72 °FPassing clouds.9 mph83%29.82 "Hg10 mi
8:06 pm73 °FPartly cloudy.9 mph74%29.81 "Hg10 mi
7:56 pm73 °FPartly cloudy.12 mph74%29.81 "Hg10 mi
6:56 pm74 °FPartly cloudy.14 mph66%29.82 "Hg10 mi
6:36 pm75 °FPassing clouds.14 mph65%29.81 "Hg10 mi
6:21 pm75 °FPassing clouds.14 mph65%29.81 "Hg10 mi
5:56 pm76 °FScattered clouds.18 mph63%29.81 "Hg10 mi
4:56 pm78 °FSunny.16 mph58%29.81 "Hg10 mi
3:56 pm78 °FSunny.14 mph56%29.81 "Hg10 mi
2:56 pm78 °FSunny.15 mph54%29.83 "Hg10 mi
1:56 pm78 °FSunny.13 mph51%29.84 "Hg10 mi
12:56 pm78 °FSunny.13 mph49%29.86 "Hg10 mi
11:56 am77 °FSunny.13 mph50%29.88 "Hg10 mi
10:56 am77 °FScattered clouds.15 mph49%29.88 "Hg10 mi
9:56 am76 °FSunny.13 mph49%29.86 "Hg10 mi
8:56 am75 °FSunny.15 mph52%29.86 "Hg10 mi
7:56 am72 °FScattered clouds.12 mph58%29.85 "Hg10 mi
7:01 am72 °FPartly sunny.9 mph61%29.83 "Hg10 mi
6:56 am71 °FScattered clouds.9 mph61%29.83 "Hg10 mi
5:56 am64 °FScattered clouds.3 mph85%29.81 "Hg10 mi
4:56 am68 °FClear.3 mph75%29.79 "Hg10 mi
Weather by CustomWeather, © 2017

See weather overviewHow to use our weather pages